TimePDT,TemperatureF,Dew PointF,Humidity,Sea Level PressureIn,VisibilityMPH,Wind Direction,Wind SpeedMPH,Gust SpeedMPH,PrecipitationIn,Events,Conditions,WindDirDegrees,DateUTC
12:53 AM,41.0,37.9,89,29.74,10.0,South,5.8,-,N/A,,Mostly Cloudy,190,2012-10-23 07:53:00
1:53 AM,42.1,39.0,89,29.76,10.0,SW,3.5,-,N/A,,Scattered Clouds,220,2012-10-23 08:53:00
2:53 AM,44.1,39.9,85,29.77,10.0,South,10.4,-,0.00,,Overcast,190,2012-10-23 09:53:00
3:53 AM,43.0,39.9,89,29.77,10.0,South,8.1,-,0.00,,Overcast,190,2012-10-23 10:53:00
4:48 AM,44.6,39.2,81,29.78,10.0,SSW,5.8,-,N/A,,Overcast,200,2012-10-23 11:48:00
4:53 AM,44.1,39.9,85,29.79,10.0,SSW,6.9,-,N/A,,Overcast,200,2012-10-23 11:53:00
5:45 AM,44.6,39.2,81,29.80,10.0,South,9.2,-,0.00,,Overcast,190,2012-10-23 12:45:00
5:53 AM,43.0,39.9,89,29.81,10.0,South,8.1,-,0.00,,Overcast,190,2012-10-23 12:53:00
6:53 AM,43.0,39.9,89,29.82,10.0,South,11.5,-,0.00,,Mostly Cloudy,190,2012-10-23 13:53:00
7:53 AM,43.0,39.9,89,29.84,10.0,SSW,6.9,-,N/A,,Overcast,200,2012-10-23 14:53:00
8:53 AM,44.1,39.0,82,29.86,10.0,South,12.7,18.4,0.00,,Overcast,190,2012-10-23 15:53:00
10:53 AM,46.9,39.9,77,29.88,10.0,SSW,12.7,20.7,N/A,,Overcast,200,2012-10-23 17:53:00
11:11 AM,46.4,39.2,76,29.88,10.0,South,16.1,21.9,N/A,,Overcast,190,2012-10-23 18:11:00
11:31 AM,46.4,39.2,76,29.88,10.0,South,13.8,24.2,0.00,Rain,Light Rain,190,2012-10-23 18:31:00
11:53 AM,48.9,39.9,71,29.88,10.0,South,15.0,21.9,0.00,,Mostly Cloudy,190,2012-10-23 18:53:00
12:05 PM,48.2,39.2,71,29.88,10.0,SSW,12.7,24.2,N/A,,Mostly Cloudy,200,2012-10-23 19:05:00
12:53 PM,48.9,39.9,71,29.90,10.0,South,13.8,20.7,N/A,,Overcast,190,2012-10-23 19:53:00
1:16 PM,50.0,39.2,66,29.89,10.0,SSW,17.3,23.0,N/A,,Mostly Cloudy,200,2012-10-23 20:16:00
1:30 PM,50.0,39.2,66,29.89,10.0,South,11.5,21.9,N/A,,Overcast,190,2012-10-23 20:30:00
1:53 PM,50.0,39.9,68,29.89,10.0,SSW,11.5,24.2,N/A,,Mostly Cloudy,200,2012-10-23 20:53:00
2:53 PM,50.0,39.0,66,29.89,10.0,SSW,10.4,18.4,N/A,,Overcast,210,2012-10-23 21:53:00
3:43 PM,46.4,41.0,81,29.90,1.5,SW,16.1,32.2,0.09,Rain,Rain,230,2012-10-23 22:43:00
3:53 PM,46.0,42.1,86,29.89,6.0,SSW,6.9,-,0.10,Rain,Light Rain,210,2012-10-23 22:53:00
4:53 PM,48.0,43.0,83,29.89,10.0,South,4.6,-,0.00,,Mostly Cloudy,180,2012-10-23 23:53:00
5:53 PM,46.0,42.1,86,29.90,10.0,South,9.2,-,0.01,Rain,Light Rain,170,2012-10-24 00:53:00
6:53 PM,45.0,41.0,86,29.89,10.0,SE,3.5,-,0.00,,Overcast,130,2012-10-24 01:53:00
7:53 PM,44.1,42.1,93,29.89,8.0,Calm,Calm,-,0.01,Rain,Light Rain,0,2012-10-24 02:53:00
8:53 PM,44.1,43.0,96,29.88,10.0,Calm,Calm,-,0.01,Rain,Light Rain,0,2012-10-24 03:53:00
9:53 PM,45.0,43.0,93,29.87,10.0,Calm,Calm,-,0.02,Rain,Light Rain,0,2012-10-24 04:53:00
11:53 PM,45.0,42.1,90,29.88,10.0,SSE,9.2,-,0.01,,Overcast,160,2012-10-24 06:53:00